This is the latest recevied weather packets stored in our database for station/object SP6PWT-13. If no packets are shown the sender has not sent any weather packets the latest 1 day(s).
| Time | Temp. | Humidity | Pressure | Rain* | Wind** | Luminosity | Snow |
|---|---|---|---|---|---|---|---|
| 1778018564 | 16.11° C | 68% | 989.3 hPa | 0 mm | 2.24 m/s, 11° | 0 W/m² | - |
| 1778018264 | 16.11° C | 68% | 989.1 hPa | 0 mm | 2.24 m/s, 2° | 0 W/m² | - |
| 1778017963 | 16.11° C | 68% | 989.3 hPa | 0 mm | 2.24 m/s, 40° | 0 W/m² | - |
| 1778017662 | 16.11° C | 68% | 989.2 hPa | 0 mm | 2.24 m/s, 25° | 0 W/m² | - |
| 1778017362 | 16.67° C | 68% | 989.4 hPa | 0 mm | 1.34 m/s, 46° | 0 W/m² | - |
| 1778017061 | 16.67° C | 68% | 989.5 hPa | 0 mm | 2.68 m/s, 10° | 0 W/m² | - |
| 1778016761 | 16.67° C | 68% | 989.3 hPa | 0 mm | 1.79 m/s, 22° | 0 W/m² | - |
| 1778016460 | 16.67° C | 68% | 989.3 hPa | 0 mm | 0.89 m/s, 69° | 0 W/m² | - |
| 1778016160 | 16.67° C | 68% | 989.4 hPa | 0 mm | 1.34 m/s, 94° | 0 W/m² | - |
| 1778015849 | 16.67° C | 68% | 989.2 hPa | 0 mm | 2.68 m/s, 50° | 0 W/m² | - |
| 1778015549 | 16.67° C | 68% | 989 hPa | 0 mm | 1.34 m/s, 49° | 0 W/m² | - |
| 1778015248 | 17.22° C | 68% | 989.2 hPa | 0 mm | 3.13 m/s, 1° | 0 W/m² | - |
| 1778014947 | 17.22° C | 68% | 989.2 hPa | 0 mm | 2.68 m/s, 11° | 0 W/m² | - |
| 1778014646 | 17.22° C | 68% | 989.5 hPa | 0 mm | 5.81 m/s, 22° | 0 W/m² | - |
| 1778014336 | 17.22° C | 68% | 989.2 hPa | 0 mm | 2.24 m/s, 46° | 0 W/m² | - |
| 1778014035 | 17.78° C | 68% | 989.1 hPa | 0 mm | 5.36 m/s, 48° | 0 W/m² | - |
| 1778013735 | 17.78° C | 69% | 989.2 hPa | 0 mm | 2.68 m/s, 27° | 0 W/m² | - |
| 1778013424 | 17.78° C | 69% | 988.9 hPa | 0 mm | 3.13 m/s, 54° | 0 W/m² | - |
| 1778013124 | 17.78° C | 69% | 989.1 hPa | 0 mm | 3.13 m/s, 26° | 0 W/m² | - |
| 1778012823 | 17.78° C | 69% | 989.2 hPa | 0 mm | 4.02 m/s, 32° | 0 W/m² | - |
| 1778012522 | 17.78° C | 70% | 989.4 hPa | 0 mm | 4.47 m/s, 39° | 0 W/m² | - |
| 1778012221 | 17.78° C | 70% | 989.3 hPa | 0 mm | 4.02 m/s, 13° | 0 W/m² | - |
| 1778011927 | 17.78° C | 70% | 989.3 hPa | 0 mm | 3.13 m/s, 60° | 0 W/m² | - |
| 1778011620 | 18.33° C | 70% | 989.5 hPa | 0 mm | 4.02 m/s, 31° | 0 W/m² | - |
| 1778011319 | 18.33° C | 70% | 989.3 hPa | 0 mm | 2.24 m/s, 29° | 0 W/m² | - |
* Rain latest hour (hover to see other rain measurements)
** Current wind speed in m/s (hover to see current wind gust speed)